Location: Strohbehn Observatory
(42.4649°N, 93.8239°W)
Time: 14:16:50
(UTC-05:00)

SL-16 R/B - Visible Passes

Search period start: 23 July 2016 00:00
Search period end: 02 August 2016 00:00
Orbit: 842 x 846 km, 71.0° (Epoch: 22 July)

Date Brightness Start Highest point End Pass type
(mag) Time Alt. Az. Time Alt. Az. Time Alt. Az.
23 Jul 4.2 05:10:48 10° SSE 05:15:26 27° ESE 05:20:05 10° NE visible
24 Jul 4.2 04:56:40 10° SSE 05:01:13 26° ESE 05:05:48 10° NE visible
25 Jul 4.2 04:42:31 10° SSE 04:47:00 25° ESE 04:51:30 10° NE visible
26 Jul 4.2 04:28:23 10° SSE 04:32:47 24° ESE 04:37:12 10° NE visible
27 Jul 4.2 04:14:15 10° SSE 04:18:34 23° E 04:22:54 10° NE visible
28 Jul 4.2 04:00:07 10° SSE 04:04:22 22° E 04:08:36 10° NE visible
29 Jul 4.2 03:46:00 10° SSE 03:50:08 21° E 03:54:18 10° NE visible
29 Jul 2.5 05:28:13 10° SW 05:33:46 56° WNW 05:39:22 10° NNE visible
30 Jul 4.2 03:32:03 11° SE 03:35:56 20° E 03:39:59 10° NE visible
30 Jul 2.4 05:13:57 10° SW 05:19:32 58° WNW 05:25:09 10° NNE visible
31 Jul 4.2 03:18:33 13° SE 03:21:43 20° E 03:25:40 10° NE visible
31 Jul 2.4 05:00:26 14° SW 05:05:17 61° WNW 05:10:56 10° NNE visible
01 Aug 4.2 03:05:01 14° SE 03:07:31 19° E 03:11:21 10° ENE visible
01 Aug 2.3 04:46:53 18° SW 04:51:03 63° WNW 04:56:42 10° NNE visible
